Inquirer Daily News

Weather

Get conditions and forecasts for any City, State, ZIP code or Country:  
Trenton, NJ
on Wednesday, January 30, 2013

Wednesday
Previous Day Next Day
Daily Summary
 ActualAverageRecord
Temperature
Mean Temperature °F 32°F  
Max Temperature 67°F 39°F 70°F (1947)
Min Temperature 41°F 24°F -13°F (1873)
Degree Days
Heating Degree Days 11 33  
Month to date heating degree days 931 1017  
Since 1 July heating degree days 2689 2912  
Cooling Degree Days 0 0  
Month to date cooling degree days 0 0  
Year to date cooling degree days 0 0  
Growing Degree Days4 (Base °F )  
Moisture
Dew Point 51°F   
Average Humidity 84    
Maximum Humidity 100    
Minimum Humidity 68    
Precipitation
Precipitation 0.14 in 0.09 in 1.10 in (1939)
Month to date precipitation 1.97 3.06  
Year to date precipitation 1.97 3.06  
Wind
Wind Speed 8 mph   
Max Wind Speed 28 mph   
Max Gust Speed 41 mph   
Visibility 5 miles   
Events Fog , Rain   

Key: T is trace of precipitation, MM is missing value
Source: NWS Daily Summary
Time(EST)TemperatureDew PointHumidity Pressure Visibility Wind DirectionWind SpeedGust SpeedPrecipitationEvents Conditions
12:27 AM 42.8°F 41.0°F 93% 30.04 in 3.0 miles ESE 3.5 mph - N/A   Overcast
1:53 AM 43.0°F 42.1°F 97% 29.98 in 1.5 miles SE 3.5 mph - N/A   Overcast
2:27 AM 44.6°F 42.8°F 93% 29.98 in 0.5 miles Calm Calm - N/A Fog Fog
2:53 AM 43.0°F 43.0°F 100% 29.96 in 0.2 miles Calm Calm - N/A Fog Fog
3:53 AM 43.0°F 43.0°F 100% 29.93 in 0.2 miles Calm Calm - N/A Fog Fog
4:53 AM 43.0°F 43.0°F 100% 29.90 in 0.2 miles Calm Calm - N/A Fog Fog
5:53 AM 42.1°F 42.1°F 100% 29.89 in 0.2 miles East 3.5 mph - N/A Fog Fog
6:53 AM 41.0°F 41.0°F 100% 29.87 in 0.2 miles Calm Calm - N/A Fog Fog
7:53 AM 42.1°F 41.0°F 96% 29.85 in 0.2 miles Calm Calm - N/A Fog Fog
8:53 AM 46.0°F 45.0°F 96% 29.82 in 0.2 miles Calm Calm - N/A Fog Fog
9:05 AM 46.4°F 46.4°F 100% 29.83 in 1.0 miles Calm Calm - N/A   Overcast
9:24 AM 48.2°F 46.4°F 93% 29.82 in 2.0 miles Calm Calm - N/A   Overcast
9:44 AM 50.0°F 48.2°F 94% 29.82 in 3.0 miles Calm Calm - N/A   Mostly Cloudy
9:53 AM 51.1°F 50.0°F 96% 29.80 in 3.0 miles SSW 4.6 mph - N/A   Mostly Cloudy
10:09 AM 51.8°F 50.0°F 94% 29.80 in 4.0 miles South 6.9 mph - N/A   Mostly Cloudy
10:53 AM 57.0°F 54.0°F 89% 29.78 in 8.0 miles SW 12.7 mph 17.3 mph N/A   Overcast
11:53 AM 62.1°F 55.9°F 80% 29.73 in 10.0 miles SW 12.7 mph 19.6 mph N/A   Overcast
12:53 PM 64.0°F 57.0°F 78% 29.67 in 10.0 miles SW 16.1 mph 23.0 mph N/A   Overcast
1:53 PM 64.9°F 57.0°F 75% 29.63 in 10.0 miles SW 19.6 mph 29.9 mph 0.00 in Rain Light Rain
2:23 PM 66.2°F 57.2°F 73% 29.62 in 10.0 miles SW 19.6 mph 32.2 mph 0.00 in   Overcast
2:53 PM 64.9°F 57.0°F 75% 29.60 in 10.0 miles SW 20.7 mph 29.9 mph 0.00 in   Overcast
3:53 PM 66.9°F 57.0°F 70% 29.59 in 10.0 miles SW 19.6 mph 27.6 mph N/A   Overcast
4:53 PM 66.0°F 55.9°F 70% 29.57 in 10.0 miles SW 17.3 mph 29.9 mph N/A   Overcast
5:53 PM 64.9°F 55.9°F 73% 29.58 in 10.0 miles WSW 17.3 mph 24.2 mph 0.00 in   Overcast
6:01 PM 64.4°F 55.4°F 73% 29.60 in 10.0 miles West 12.7 mph 21.9 mph 0.00 in Rain Light Rain
6:53 PM 60.1°F 55.9°F 86% 29.56 in 9.0 miles WSW 3.5 mph - 0.00 in Rain Light Rain
7:53 PM 57.9°F 55.0°F 90% 29.53 in 10.0 miles SSW 5.8 mph - 0.00 in Rain Light Rain
8:53 PM 57.9°F 55.9°F 93% 29.48 in 10.0 miles Variable 3.5 mph - N/A   Overcast
9:53 PM 61.0°F 55.9°F 83% 29.42 in 9.0 miles SSW 10.4 mph 26.5 mph 0.01 in Rain Light Rain
10:53 PM 62.1°F 57.0°F 84% 29.39 in 10.0 miles SW 21.9 mph 33.4 mph 0.01 in   Overcast
11:22 PM 60.8°F 57.2°F 88% 29.39 in 5.0 miles SW 18.4 mph 24.2 mph 0.00 in Rain Light Rain
11:41 PM 59.0°F 57.2°F 94% 29.36 in 2.5 miles SW 10.4 mph - 0.07 in Rain Heavy Rain
11:45 PM 59.0°F 57.2°F 94% 29.36 in 3.0 miles SW 9.2 mph - 0.07 in Rain Light Rain
11:53 PM 59.0°F 57.0°F 93% 29.33 in 5.0 miles SW 8.1 mph 17.3 mph 0.09 in Rain Rain
Astronomy
Sunrise:07:09 AM (EST) Moon Rise:09:12 PM (EST)1/30
Sunset:05:15 PM (EST) Moon Set:08:36 AM (EST)1/30
Moon Phase
Jan. 30 Feb. 03 Feb. 10 Feb. 17 Feb. 25

Copyright © 2014 The Weather Underground, Inc.